C/2016 R2 ( PanSTARRS )

Japanese version
Home page
Updated on November 23, 2017

---------------------------------------------------------------------

* Profile

Discovery Date September 7, 2016
Magnitude 19.1 mag
Discoverer Pan-STARRS 1 telescope (Haleakala)

* Pictures

* Orbital Elements

Epoch 2018 May 2.0 TT = JDT 2458240.5
T 2018 May  9.58467 TT                                  MPCW
q   2.6023597            (2000.0)            P               Q
z  +0.0014026      Peri.   33.19251     -0.14727240     -0.52443328
 +/-0.0000009      Node    80.56897     +0.61562231     -0.71221741
e   0.9963500      Incl.   58.22349     +0.77415761     +0.46660057
From 455 observations 2016 Aug. 30-2017 Nov. 2, mean residual 0".4.

* Finding Charts

* Magnitudes Graph

        m1 = 5.0 + 5 log d + 10.0 log r

---------------------------------------------------------------------

The orbital elements are published on M.P.E.C. 2017-V13.
The charts are made with StellaNavigator Ver.10 (AstroArts).
The magnitudes graphs are made with Comet for Windows.

---------------------------------------------------------------------

Copyright(C) Seiichi Yoshida (comet@aerith.net). All rights reserved.